Weather History for El Reno, OK

Change the Weather History Date:

Sunday, January 19, 2014

  Actual Average (KOKC) Record (KOKC)
Temperature  
Mean Temperature 44 °F 39 °F  
Max Temperature 66 °F 50 °F 75 °F (1914)
Min Temperature 23 °F 29 °F -11 °F (1892)
Degree Days  
Heating Degree Days 20 26  
Month to date heating degree days 494  
Since 1 July heating degree days 1849  
Moisture  
Dew Point 22 °F    
Average Humidity 49    
Maximum Humidity 86    
Minimum Humidity 18    
Precipitation  
Precipitation 0.00 in 0.04 in 2.76 in (1894)
Month to date precipitation 0.78  
Year to date precipitation 0.78  
Snow  
Snow 0.00 in 0.10 in 6.00 in (1898)
Month to date snowfall 1.7  
Since 1 July snowfall 4.2  
Snow Depth -    
Sea Level Pressure  
Sea Level Pressure 30.10 in    
Wind  
Wind Speed 11 mph (SW)    
Max Wind Speed 28 mph    
Max Gust Speed 34 mph    
Visibility 10 miles    
Events      
T = Trace of Precipitation, MM = Missing Value Source: NWS Daily Summary

Daily Weather History Graph

Daily Weather History Graph

Search for Another Location

Airport:

Trip Planner

Search our weather history database for the weather conditions in past years. The results will help you decide how hot, cold, wet, or windy it might be!

Date:

Astronomy

Jan. 19, 2014 Rise Set
Actual Time 7:39 AM CST 5:46 PM CST
Civil Twilight 7:11 AM CST 6:14 PM CST
Nautical Twilight 6:40 AM CST 6:45 PM CST
Astronomical Twilight 6:10 AM CST 7:15 PM CST
Moon 9:16 PM CST (1/19) 9:18 AM CST (1/19)
Length of Visible Light 11h 02m
Length of Day
10h 07m
Waning Gibbous, 89% of the Moon is Illuminated
Jan 19
Waning Gibbous
Jan 23
Last Quarter
Jan 30
New
Feb 6
First Quarter
Feb 14
Full

Hourly Weather History & Observations

Time (CST) Temp. Windchill Dew Point Humidity Pressure Visibility Wind Dir Wind Speed Gust Speed Precip Events Conditions
12:15 AM 32.0 °F 25.6 °F 21.2 °F 64% 30.21 in 10.0 mi NNW 6.9 mph - N/A   Clear
12:35 AM 30.2 °F 22.6 °F 21.2 °F 69% 30.21 in 10.0 mi NW 8.1 mph - N/A   Clear
12:55 AM 28.4 °F 23.3 °F 21.2 °F 74% 30.21 in 10.0 mi NNW 4.6 mph - N/A   Clear
1:15 AM 28.4 °F 22.2 °F 19.4 °F 69% 30.21 in 10.0 mi WNW 5.8 mph - N/A   Clear
1:35 AM 28.4 °F 19.1 °F 21.2 °F 74% 30.21 in 10.0 mi WNW 10.4 mph - N/A   Clear
1:55 AM 28.4 °F 19.7 °F 21.2 °F 74% 30.20 in 10.0 mi NNW 9.2 mph - N/A   Clear
2:15 AM 28.4 °F 22.2 °F 21.2 °F 74% 30.21 in 10.0 mi WNW 5.8 mph - N/A   Clear
2:35 AM 28.4 °F 21.2 °F 21.2 °F 74% 30.20 in 10.0 mi NW 6.9 mph - N/A   Clear
2:55 AM 26.6 °F 18.2 °F 19.4 °F 74% 30.20 in 10.0 mi NW 8.1 mph - N/A   Clear
3:15 AM 28.4 °F 23.3 °F 21.2 °F 74% 30.21 in 10.0 mi WNW 4.6 mph - N/A   Clear
3:35 AM 30.2 °F 25.4 °F 21.2 °F 69% 30.21 in 10.0 mi NW 4.6 mph - N/A   Clear
3:55 AM 26.6 °F 18.2 °F 19.4 °F 74% 30.21 in 10.0 mi West 8.1 mph - N/A   Clear
4:15 AM 28.4 °F 22.2 °F 21.2 °F 74% 30.20 in 10.0 mi West 5.8 mph - N/A   Clear
4:35 AM 26.6 °F 18.2 °F 19.4 °F 74% 30.22 in 10.0 mi SW 8.1 mph - N/A   Clear
4:55 AM 24.8 °F 16.1 °F 19.4 °F 80% 30.21 in 10.0 mi West 8.1 mph - N/A   Clear
5:15 AM 26.6 °F 16.2 °F 19.4 °F 74% 30.22 in 10.0 mi West 11.5 mph - N/A   Clear
5:35 AM 26.6 °F 17.5 °F 21.2 °F 80% 30.22 in 10.0 mi West 9.2 mph - N/A   Clear
5:55 AM 24.8 °F 16.1 °F 19.4 °F 80% 30.22 in 10.0 mi West 8.1 mph - N/A   Clear
6:15 AM 24.8 °F 14.6 °F 19.4 °F 80% 30.22 in 10.0 mi WSW 10.4 mph - N/A   Clear
6:35 AM 26.6 °F 17.5 °F 19.4 °F 74% 30.22 in 10.0 mi WSW 9.2 mph - N/A   Clear
6:55 AM 23.0 °F 13.9 °F 19.4 °F 86% 30.22 in 10.0 mi WSW 8.1 mph - N/A   Clear
7:15 AM 24.8 °F 14.6 °F 19.4 °F 80% 30.21 in 10.0 mi SW 10.4 mph - N/A   Clear
7:35 AM 26.6 °F 16.8 °F 21.2 °F 80% 30.19 in 10.0 mi SSW 10.4 mph - N/A   Clear
7:55 AM 26.6 °F 17.5 °F 21.2 °F 80% 30.20 in 10.0 mi SSW 9.2 mph - N/A   Clear
8:15 AM 28.4 °F 18.5 °F 21.2 °F 74% 30.20 in 10.0 mi SSW 11.5 mph - N/A   Clear
8:35 AM 30.2 °F 23.4 °F 23.0 °F 75% 30.19 in 10.0 mi South 6.9 mph - N/A   Clear
8:55 AM 32.0 °F 24.2 °F 24.8 °F 75% 30.19 in 10.0 mi SW 9.2 mph - N/A   Clear
9:15 AM 35.6 °F 28.6 °F 24.8 °F 65% 30.19 in 10.0 mi SSW 9.2 mph - N/A   Clear
9:35 AM 39.2 °F 33.6 °F 26.6 °F 61% 30.19 in 10.0 mi SSW 8.1 mph - N/A   Clear
9:55 AM 44.6 °F 37.8 °F 26.6 °F 49% 30.20 in 10.0 mi SSW 15.0 mph - N/A   Clear
10:15 AM 46.4 °F 39.5 °F 23.0 °F 40% 30.19 in 10.0 mi SW 17.3 mph - N/A   Clear
10:35 AM 50.0 °F - 23.0 °F 35% 30.19 in 10.0 mi SW 18.4 mph 21.9 mph N/A   Clear
10:55 AM 50.0 °F - 23.0 °F 35% 30.19 in 10.0 mi SSW 17.3 mph - N/A   Clear
11:15 AM 51.8 °F - 21.2 °F 30% 30.19 in 10.0 mi SW 19.6 mph 26.5 mph N/A   Clear
11:35 AM 53.6 °F - 23.0 °F 30% 30.17 in 10.0 mi SW 16.1 mph 24.2 mph N/A   Clear
11:55 AM 55.4 °F - 23.0 °F 29% 30.15 in 10.0 mi SSW 19.6 mph 24.2 mph N/A   Clear
12:15 PM 57.2 °F - 23.0 °F 27% 30.13 in 10.0 mi SSW 18.4 mph - N/A   Clear
12:35 PM 59.0 °F - 23.0 °F 25% 30.10 in 10.0 mi SW 20.7 mph 24.2 mph N/A   Clear
12:55 PM 60.8 °F - 19.4 °F 20% 30.08 in 10.0 mi SW 27.6 mph - N/A   Clear
1:15 PM 62.6 °F - 19.4 °F 19% 30.07 in 10.0 mi SW 26.5 mph - N/A   Clear
1:35 PM 62.6 °F - 19.4 °F 19% 30.05 in 10.0 mi SW 27.6 mph 34.5 mph N/A   Clear
1:55 PM 64.4 °F - 21.2 °F 19% 30.04 in 10.0 mi SSW 25.3 mph 29.9 mph N/A   Clear
2:15 PM 64.4 °F - 21.2 °F 19% 30.02 in 10.0 mi SW 26.5 mph 29.9 mph N/A   Clear
2:35 PM 64.4 °F - 19.4 °F 18% 30.01 in 10.0 mi SW 24.2 mph 31.1 mph N/A   Clear
2:55 PM 64.4 °F - 21.2 °F 19% 30.00 in 10.0 mi SW 23.0 mph 29.9 mph N/A   Clear
3:15 PM 66.2 °F - 21.2 °F 18% 30.00 in 10.0 mi SSW 25.3 mph 28.8 mph N/A   Clear
3:35 PM 64.4 °F - 21.2 °F 19% 30.00 in 10.0 mi SSW 21.9 mph 26.5 mph N/A   Clear
3:55 PM 64.4 °F - 21.2 °F 19% 29.99 in 10.0 mi SSW 23.0 mph 27.6 mph N/A   Clear
4:15 PM 64.4 °F - 21.2 °F 19% 29.98 in 10.0 mi SSW 17.3 mph 25.3 mph N/A   Clear
4:35 PM 64.4 °F - 21.2 °F 19% 29.97 in 10.0 mi South 16.1 mph - N/A   Clear
4:55 PM 62.6 °F - 23.0 °F 22% 29.97 in 10.0 mi SSW 16.1 mph 21.9 mph N/A   Clear
5:15 PM 60.8 °F - 23.0 °F 23% 29.97 in 10.0 mi SSW 13.8 mph - N/A   Clear
5:35 PM 59.0 °F - 23.0 °F 25% 29.97 in 10.0 mi South 15.0 mph - N/A   Clear
5:55 PM 55.4 °F - 23.0 °F 29% 29.97 in 10.0 mi South 15.0 mph - N/A   Clear
6:15 PM 53.6 °F - 23.0 °F 30% 29.96 in 10.0 mi South 13.8 mph - N/A   Clear
6:55 PM 51.8 °F - 23.0 °F 33% 29.97 in 10.0 mi South 12.7 mph - N/A   Clear
7:15 PM 50.0 °F - 23.0 °F 35% 29.97 in 10.0 mi South 16.1 mph - N/A   Clear
7:35 PM 51.8 °F - 23.0 °F 33% 29.97 in 10.0 mi South 13.8 mph - N/A   Clear
7:55 PM 50.0 °F - 23.0 °F 35% 29.97 in 10.0 mi South 15.0 mph - N/A   Clear
8:15 PM 50.0 °F - 23.0 °F 35% 29.96 in 10.0 mi South 16.1 mph - N/A   Clear
8:35 PM 48.2 °F - 23.0 °F 37% 29.96 in 10.0 mi South 12.7 mph - N/A   Clear
8:55 PM 50.0 °F - 23.0 °F 35% 29.95 in 10.0 mi South 15.0 mph - N/A   Clear
9:15 PM 46.4 °F 41.1 °F 23.0 °F 40% 29.95 in 10.0 mi South 11.5 mph - N/A   Clear
9:35 PM 44.6 °F 39.7 °F 23.0 °F 43% 29.95 in 10.0 mi South 9.2 mph - N/A   Clear
9:55 PM 44.6 °F 39.2 °F 23.0 °F 43% 29.95 in 10.0 mi South 10.4 mph - N/A   Clear
10:15 PM 42.8 °F 37.0 °F 23.0 °F 46% 29.95 in 10.0 mi South 10.4 mph - N/A   Clear
10:35 PM 41.0 °F 34.3 °F 23.0 °F 49% 29.95 in 10.0 mi South 11.5 mph - N/A   Clear
10:55 PM 41.0 °F 34.3 °F 23.0 °F 49% 29.94 in 10.0 mi South 11.5 mph - N/A   Clear
11:15 PM 42.8 °F 36.6 °F 23.0 °F 46% 29.94 in 10.0 mi South 11.5 mph - N/A   Clear
11:35 PM 42.8 °F 35.8 °F 23.0 °F 46% 29.92 in 10.0 mi South 13.8 mph - N/A   Clear
11:55 PM 42.8 °F 35.8 °F 23.0 °F 46% 29.92 in 10.0 mi South 13.8 mph - N/A   Clear